This is the latest recevied weather packets stored in our database for station/object N4DWK. If no packets are shown the sender has not sent any weather packets the latest 10 day(s).
| Time | Temp. | Humidity | Pressure | Rain* | Wind** | Luminosity | Snow |
|---|---|---|---|---|---|---|---|
| 1777638605 | 9.44° C | 80% | 1016.5 hPa | 0 mm | - | 46 W/m² | - |
| 1777638004 | 8.89° C | 84% | 1016.5 hPa | 0 mm | - | 44 W/m² | - |
| 1777637105 | 7.78° C | 89% | 1016.4 hPa | 0 mm | - | 42 W/m² | - |
| 1777635605 | 6.67° C | 91% | 1016.5 hPa | 0 mm | - | 39 W/m² | - |
| 1777635305 | 6.67° C | 91% | 1016.4 hPa | 0 mm | - | 37 W/m² | - |
| 1777635005 | 6.11° C | 91% | 1016.5 hPa | 0 mm | - | 37 W/m² | - |
| 1777634704 | 6.11° C | 91% | 1016.6 hPa | 0 mm | - | 37 W/m² | - |
| 1777634404 | 5.56° C | 90% | 1016.4 hPa | 0 mm | - | 33 W/m² | - |
| 1777634105 | 5.56° C | 90% | 1016.2 hPa | 0 mm | - | 33 W/m² | - |
| 1777633805 | 5.56° C | 90% | 1016.1 hPa | 0 mm | - | 33 W/m² | - |
| 1777633505 | 5.56° C | 90% | 1016.2 hPa | 0 mm | - | 30 W/m² | - |
| 1777633205 | 5.56° C | 90% | 1016.3 hPa | 0 mm | - | 28 W/m² | - |
| 1777632904 | 5° C | 90% | 1016.3 hPa | 0 mm | - | 25 W/m² | - |
| 1777632604 | 5° C | 89% | 1016.1 hPa | 0 mm | - | 21 W/m² | - |
| 1777632305 | 5° C | 89% | 1016.1 hPa | 0 mm | - | 16 W/m² | - |
| 1777632005 | 5° C | 89% | 1016.2 hPa | 0 mm | - | 11 W/m² | - |
| 1777631705 | 5.56° C | 89% | 1016.1 hPa | 0 mm | - | 7 W/m² | - |
| 1777631404 | 5.56° C | 89% | 1016 hPa | 0 mm | - | 5 W/m² | - |
| 1777631105 | 5.56° C | 88% | 1016 hPa | 0 mm | - | 0 W/m² | - |
| 1777630804 | 5.56° C | 88% | 1016 hPa | 0 mm | - | 0 W/m² | - |
| 1777630505 | 5.56° C | 88% | 1015.9 hPa | 0 mm | - | 0 W/m² | - |
| 1777630205 | 5.56° C | 88% | 1016 hPa | 0 mm | - | 0 W/m² | - |
| 1777629904 | 5.56° C | 88% | 1016 hPa | 0 mm | - | 0 W/m² | - |
| 1777629606 | 5.56° C | 88% | 1016 hPa | 0 mm | - | 0 W/m² | - |
| 1777629306 | 5.56° C | 87% | 1015.9 hPa | 0 mm | - | 0 W/m² | - |
* Rain latest hour (hover to see other rain measurements)
** Current wind speed in m/s (hover to see current wind gust speed)